Tracking 35051 objects as of 17-Aug-2026
HD Live streaming from Space Station
objects crossing your sky now

NOAA 16 DEB

Track NOAA 16 DEB now!
10-day predictions


NORAD ID: 41402
Int'l Code: 2000-055KF
Launch date: September 21, 2000
Source: United States (US)
Launch site: AIR FORCE WESTERN TEST RANGE (AFWTR)

Note: This is SATELLITE DEBRIS
Your satellite tracking list
Your tracking list is empty




NASA's NSSDC Master Catalog

Two Line Element Set (TLE):
1 41402U 00055KF  26226.29936517  .00001359  00000-0  66660-3 0  9996
2 41402  98.6756 254.0142 0031633  82.6653 277.8117 14.19158627540611
Source of the keplerian elements: AFSPC